Location: Observatory
(52.1446°N, 0.4624°W)
Time: 06:25:22
(UTC+00:00)

ISS - Pass Details

Date: 14 December 2017
Orbit: 403 x 407 km, 51.6° (Epoch: 12 December)

Event Time Altitude Azimuth Distance (km) Brightness Sun altitude
Rises 17:43:59 0° 281° (W) 2,332 1.1 -16.3°
Reaches altitude 10° 17:46:22 10° 266° (W) 1,468 0.3 -16.6°
Maximum altitude 17:48:58 22° 213° (SSW) 955 -1.4 -17.0°
Drops below altitude 10° 17:51:33 10° 161° (SSE) 1,460 -1.0 -17.4°
Enters shadow 17:52:28 - 153° (SSE) 1,779 -0.7 -17.5°
